Location: Aragoneses
(41.0275°N, 4.3847°W)
Time: 16:42:56
(UTC+00:00)

SMAP - Pass Details

Date: 11 December 2025
Orbit: 681 x 683 km, 98.1° (Epoch: 16 January)

Event Time Altitude Azimuth Distance (km) Brightness Sun altitude
Rises 17:35:24 0° 162° (SSE) 3,031 6.5 -8.6°
Reaches altitude 10° 17:37:37 10° 161° (SSE) 2,120 5.7 -9.0°
Maximum altitude 17:42:15 79° 75° (ENE) 702 3.0 -9.8°
Drops below altitude 10° 17:46:55 10° 350° (N) 2,135 5.5 -10.6°
Sets 17:49:10 0° 349° (N) 3,055 6.3 -11.0°
